{"data":{"norad_id":61707,"epoch":"2026-05-25T04:32:17.565216Z","epoch_age_seconds":54662,"freshness":"FRESH","line1":"1 61707U 24196A   26145.18909219  .00000126  00000+0  16370-4 0  9999","line2":"2 61707  53.1603 105.6817 0001260  96.3539 263.7605 15.30191506 88885","mean_motion":15.30191506,"eccentricity":0.000126,"inclination_deg":53.1603,"raan_deg":105.6817,"arg_perigee_deg":96.3539,"mean_anomaly_deg":263.7605,"bstar":1.637e-5,"rev_number":8888,"period_min":94.105868079495,"perigee_km":474.37690553327,"apogee_km":476.1039566459,"semimajor_km":6853.3774310896,"source":"CELESTRAK","updated_at":"2026-05-25T13:38:19.443479Z"}}